This demonstration page uses our WeatherBlox Daily Observations layout. Learn more.

Left ArrowRight Arrow

39.51506, -84.39828

Hourly Observations for October 31, 2018

Temp ( °F °C ) Dew Point ( °F °C ) Humidity (%) Winds ( mph kmh ) Pressure ( in mb ) Visibility ( mi km ) Precip ( " mm )
12:15 am 00:15 Partly Cloudy 60 15.5 45 7 57 57 S 9 15 29.91 1013 10 16.0934 0 0
12:35 am 00:35 Cloudy 60 15.8 46 7.6 58 58 S 9 15 29.91 1013 10 16.0934 0 0
12:55 am 00:55 Cloudy 60 15.6 46 8 61 61 S 10 17 29.91 1013 10 16.0934 0 0
1:15 am 01:15 Cloudy 60 15.5 47 8.5 63 63 S 10 17 29.91 1013 10 16.0934 0 0
1:35 am 01:35 Mostly Cloudy 60 15.5 48 8.9 65 65 S 10 17 29.91 1013 10 16.0934 0 0
1:55 am 01:55 Partly Cloudy 60 15.8 49 9.3 66 66 SSW 10 17 29.91 1013 10 16.0934 0 0
2:15 am 02:15 Cloudy 61 16 49 9.6 66 66 S 10 17 29.91 1013 10 16.0934 0 0
2:30 am 02:30 Mostly Cloudy 61 15.9 50 9.8 67 67 S 10 17 29.91 1013 10 16.0934 0 0
2:55 am 02:55 Partly Cloudy 60 15.7 50 10.1 70 70 S 12 19 29.91 1013 10 16.0934 0 0
3:15 am 03:15 Partly Cloudy 60 15.7 51 10.4 71 71 S 14 22 29.91 1013 10 16.0934 0 0
3:35 am 03:35 Mostly Cloudy 60 15.8 51 10.8 72 72 S 10 17 29.91 1013 10 16.0934 0 0
3:55 am 03:55 Mostly Cloudy 61 15.9 52 10.9 72 72 S 12 19 29.88 1012 10 16.0934 0 0
4:15 am 04:15 Cloudy 61 15.9 52 11.1 73 73 S 10 17 29.88 1012 10 16.0934 0 0
4:35 am 04:35 Cloudy 60 15.8 53 11.4 75 75 S 8 13 29.88 1012 10 16.0934 0 0
4:55 am 04:55 Cloudy 61 16 53 11.5 75 75 S 8 13 29.88 1012 10 16.0934 0 0
5:15 am 05:15 Cloudy 61 16.1 53 11.7 75 75 S 7 11 29.88 1012 10 16.0934 0 0
5:35 am 05:35 Mostly Cloudy 61 15.9 53 11.8 77 77 S 7 11 29.88 1012 10 16.0934 0 0
5:55 am 05:55 Cloudy 62 16.4 54 12 75 75 S 10 17 29.88 1012 10 16.0934 0 0
6:15 am 06:15 Clear 60 15.8 53 11.9 78 78 S 10 17 29.88 1012 10 16.0934 0 0
6:35 am 06:35 Mostly Cloudy 61 16.1 54 12.1 77 77 SSW 9 15 29.88 1012 10 16.0934 0 0
6:55 am 06:55 Cloudy 61 16.3 54 12.3 77 77 S 10 17 29.88 1012 10 16.0934 0 0
7:15 am 07:15 Cloudy 62 16.4 54 12.3 77 77 S 9 15 29.85 1011 10 16.0934 0 0
7:35 am 07:35 Partly Cloudy 61 16.2 54 12.3 78 78 S 8 13 29.85 1011 10 16.0934 0 0
7:55 am 07:55 Mostly Cloudy 61 16.3 55 12.5 78 78 S 9 15 29.85 1011 10 16.0934 0 0
8:15 am 08:15 Mostly Cloudy 62 16.6 55 12.8 78 78 SSW 7 11 29.85 1011 10 16.0934 0 0
8:35 am 08:35 Cloudy 63 17.2 56 13.2 77 77 SSW 13 20 29.85 1011 10 16.0934 0 0
8:55 am 08:55 Cloudy 63 17.4 56 13.2 77 77 SSW 16 26 29.85 1011 10 16.0934 0 0
9:15 am 09:15 Cloudy 64 17.6 56 13.2 76 76 SSW 15 24 29.85 1011 10 16.0934 0 0
9:35 am 09:35 Cloudy 64 18 56 13.4 75 75 SSW 17 28 29.85 1011 10 16.0934 0 0
9:55 am 09:55 Cloudy 65 18.1 56 13.4 74 74 SSW 16 26 29.88 1012 10 16.0934 0 0
10:15 am 10:15 Cloudy 64 18 56 13.3 74 74 WSW 15 24 29.88 1012 10 16.0934 0 0
10:35 am 10:35 Cloudy with Heavy Rain 62 16.7 57 14.1 85 85 SW 16 26 29.88 1012 5 8.0467 0.04 1.016
10:55 am 10:55 Cloudy with Heavy Rain 60 15.8 58 14.6 93 93 SW 10 17 29.88 1012 4 6.43736 0.12 3.048
11:15 am 11:15 Cloudy with Light Rain 61 15.9 59 14.8 93 93 SSW 10 17 29.88 1012 7 11.26538 0.04 1.016
11:35 am 11:35 Cloudy with Light Rain 61 16.3 59 15.1 93 93 SSW 12 19 29.88 1012 10 16.0934 0.04 1.016
11:55 am 11:55 Cloudy with Rain 61 16.1 59 15.2 94 94 SSW 8 13 29.88 1012 5 8.0467 0.06 1.524
12:15 pm 12:15 Cloudy with Light Rain 61 16.1 60 15.3 95 95 SSW 9 15 29.88 1012 5 8.0467 0.01 0.254
12:35 pm 12:35 Cloudy with Heavy Rain 61 16 60 15.4 96 96 SSW 7 11 29.88 1012 3 4.82802 0.08 2.032
12:55 pm 12:55 Cloudy with Light Rain 62 16.4 60 15.7 96 96 SSW 9 15 29.88 1012 5 8.0467 0.1 2.54
1:15 pm 13:15 Cloudy with Light Rain 62 16.4 60 15.8 96 96 SSW 8 13 29.88 1012 3.5 5.63269 0.02 0.508
1:35 pm 13:35 Cloudy with Light Rain 62 16.4 60 15.7 96 96 SSW 12 19 29.85 1011 4 6.43736 0.03 0.762
1:55 pm 13:55 Cloudy with Light Rain 62 16.6 60 15.8 95 95 SSW 12 19 29.85 1011 7 11.26538 0.04 1.016
2:15 pm 14:15 Cloudy with Light Rain 62 16.7 61 15.9 95 95 SW 10 17 29.85 1011 7 11.26538 0 0
2:35 pm 14:35 Cloudy with Light Rain 62 16.8 61 16 95 95 SW 10 17 29.85 1011 7 11.26538 0 0
2:55 pm 14:55 Cloudy with Light Rain 62 16.9 61 16.1 95 95 SW 10 17 29.85 1011 7 11.26538 0 0
3:15 pm 15:15 Cloudy with Light Rain 63 17.1 62 16.4 96 96 SSW 8 13 29.85 1011 5 8.0467 0.01 0.254
3:35 pm 15:35 Cloudy with Light Rain 63 17.2 62 16.6 96 96 SSW 9 15 29.85 1011 7 11.26538 0.02 0.508
3:55 pm 15:55 Cloudy 63 17.1 61 16.3 95 95 SSW 9 15 29.85 1011 10 16.0934 0.02 0.508
4:15 pm 16:15 Cloudy with Light Rain 63 17 62 16.4 96 96 SW 7 11 29.85 1011 4 6.43736 0 0
4:35 pm 16:35 Cloudy with Drizzle 63 17 62 16.4 96 96 SW 8 13 29.85 1011 3 4.82802 0 0
4:55 pm 16:55 Cloudy with Drizzle 63 17 62 16.5 97 97 SW 7 11 29.85 1011 3 4.82802 0.01 0.254
5:15 pm 17:15 Cloudy with Drizzle 63 17.1 62 16.6 97 97 SSW 3 6 29.85 1011 3 4.82802 0 0
5:35 pm 17:35 Cloudy with Mist and Fog 63 17 62 16.5 97 97 SW 3 6 29.85 1011 3.5 5.63269 0 0
5:55 pm 17:55 Cloudy with Light Rain 59 14.9 58 14.2 96 96 N 9 15 29.85 1011 7 11.26538 0 0
6:15 pm 18:15 Cloudy with Light Rain 58 14.5 57 13.7 95 95 N 6 9 29.85 1011 7 11.26538 0 0
6:35 pm 18:35 Cloudy with Light Rain 58 14.2 56 13.6 96 96 N 6 9 29.91 1013 3.5 5.63269 0.01 0.254
6:55 pm 18:55 Cloudy with Drizzle 57 13.8 56 13.1 96 96 N 7 11 29.91 1013 10 16.0934 0.01 0.254
7:15 pm 19:15 Cloudy 56 13.4 55 12.6 95 95 N 9 15 29.91 1013 10 16.0934 0 0
7:35 pm 19:35 Cloudy with Light Rain 56 13.2 55 12.5 96 96 NNE 8 13 29.91 1013 5 8.0467 0 0
8:15 pm 20:15 Cloudy 55 12.7 54 12.1 96 96 N 8 13 29.91 1013 10 16.0934 0 0
8:35 pm 20:35 Cloudy 55 12.7 54 12 96 96 N 7 11 29.91 1013 10 16.0934 0 0
8:55 pm 20:55 Cloudy 55 12.5 53 11.8 96 96 NNE 6 9 29.91 1013 10 16.0934 0 0
9:15 pm 21:15 Cloudy with Rain 54 12.3 53 11.7 96 96 NNE 6 9 29.91 1013 3.5 5.63269 0.07 1.778
9:35 pm 21:35 Cloudy with Mist and Fog 54 12.3 53 11.7 96 96 NNW 3 6 29.91 1013 7 11.26538 0.07 1.778
9:55 pm 21:55 Cloudy with Mist and Fog 54 12.3 53 11.7 96 96 NNE 5 7 29.91 1013 7 11.26538 0.07 1.778
10:15 pm 22:15 Cloudy with Light Rain 54 12.2 53 11.6 96 96 N 5 7 29.91 1013 3.5 5.63269 0.01 0.254
10:35 pm 22:35 Cloudy with Light Rain 54 12.2 53 11.7 97 97 N 5 7 29.91 1013 3 4.82802 0.02 0.508
10:55 pm 22:55 Cloudy with Drizzle 54 12.2 53 11.7 97 97 Calm 29.91 1013 3.5 5.63269 0.03 0.762
11:15 pm 23:15 Cloudy with Light Rain 54 12.1 53 11.6 97 97 N 5 7 29.91 1013 3.5 5.63269 0 0
11:35 pm 23:35 Cloudy with Light Rain 54 12 53 11.6 97 97 NNE 9 15 29.88 1012 2.5 4.02335 0.03 0.762
11:55 pm 23:55 Cloudy with Light Rain 54 12.1 53 11.6 97 97 NNE 6 9 29.88 1012 4 6.43736 0.03 0.762

Powered by AerisWeather